Weather History for KAVL - April, 2008

Change the Weather History Date:

Monday, April 21, 2008

  Actual Average Record
Temperature  
Mean Temperature 56 °F 57 °F  
Max Temperature 69 °F 69 °F 86 °F (1963)
Min Temperature 42 °F 44 °F 26 °F (1904)
Degree Days  
Heating Degree Days 9 9  
Month to date heating degree days 220 235  
Since 1 July heating degree days 3782 4007  
Cooling Degree Days 0 0  
Month to date cooling degree days 0 0  
Year to date cooling degree days 0 1  
Growing Degree Days 6 (Base 50)    
Moisture  
Dew Point 42 °F    
Average Humidity 62    
Maximum Humidity 82    
Minimum Humidity 42    
Precipitation  
Precipitation 0.00 in 0.11 in 1.54 in (1935)
Month to date precipitation 1.73 2.31  
Year to date precipitation 12.59 13.57  
Snow  
Snow 0.00 in 0.10 in 0.40 in (1901)
Month to date snowfall 0.0 0.7  
Since 1 July snowfall 3.8 9.9  
Snow Depth -    
Sea Level Pressure  
Sea Level Pressure 29.98 in    
Wind  
Wind Speed 12 mph (NNW)    
Max Wind Speed 22 mph    
Max Gust Speed 26 mph    
Visibility 10 miles    
Events      
T = Trace of Precipitation, MM = Missing Value Source: NWS Daily Summary

Daily Weather History Graph

Daily Weather History Graph

Search for Another Location

Airport or City:

Trip Planner

Search our weather history database for the weather conditions in past years. The results will help you decide how hot, cold, wet, or windy it might be!

Date:

Astronomy

Apr. 21, 2008 Rise Set
Actual Time 6:49 AM EDT 8:08 PM EDT
Civil Twilight 6:22 AM EDT 8:35 PM EDT
Nautical Twilight 5:51 AM EDT 9:06 PM EDT
Astronomical Twilight 5:18 AM EDT 9:40 PM EDT
Moon 9:43 PM EDT (4/21) 7:04 AM EDT (4/21)
Length of Visible Light 14h 12m
Length of Day
13h 18m
Full, 99% of the Moon is Illuminated
Apr 21
Full
Apr 28
Last Quarter
May 5
New
May 11
First Quarter
May 19
Full

Hourly Weather History & Observations

Time (EDT) Temp. Windchill Dew Point Humidity Pressure Visibility Wind Dir Wind Speed Gust Speed Precip Events Conditions
12:54 AM 46.9 °F - 39.0 °F 74% 29.97 in 10.0 mi NNW 8.1 mph - N/A   Clear
1:54 AM 48.0 °F - 39.0 °F 71% 29.94 in 10.0 mi NNW 13.8 mph - N/A   Clear
2:54 AM 46.9 °F - 39.0 °F 74% 29.94 in 10.0 mi NNE 4.6 mph - N/A   Clear
3:54 AM 46.9 °F - 39.0 °F 74% 29.94 in 10.0 mi North 8.1 mph - N/A   Clear
4:54 AM 45.0 °F 39.3 °F 39.0 °F 80% 29.94 in 10.0 mi NNW 11.5 mph - N/A   Clear
5:54 AM 44.1 °F 37.7 °F 39.0 °F 82% 29.96 in 10.0 mi NNW 12.7 mph - N/A   Clear
6:54 AM 45.0 °F 41.8 °F 39.0 °F 80% 29.97 in 10.0 mi NNW 5.8 mph - N/A   Clear
7:54 AM 50.0 °F - 41.0 °F 71% 29.99 in 10.0 mi NNW 9.2 mph - N/A   Clear
8:54 AM 53.1 °F - 42.1 °F 66% 30.00 in 10.0 mi NNW 13.8 mph - N/A   Clear
9:54 AM 57.0 °F - 42.1 °F 57% 30.01 in 10.0 mi NW 16.1 mph 24.2 mph N/A   Clear
10:54 AM 59.0 °F - 43.0 °F 55% 30.01 in 10.0 mi NNW 17.3 mph 21.9 mph N/A   Clear
11:54 AM 62.1 °F - 43.0 °F 50% 30.00 in 10.0 mi NNW 17.3 mph 23.0 mph N/A   Clear
12:54 PM 64.0 °F - 43.0 °F 46% 29.99 in 10.0 mi NNW 19.6 mph 23.0 mph N/A   Clear
1:54 PM 66.0 °F - 43.0 °F 43% 29.99 in 10.0 mi NNW 16.1 mph 20.7 mph N/A   Partly Cloudy
2:54 PM 66.0 °F - 43.0 °F 43% 29.97 in 10.0 mi North 13.8 mph 25.3 mph N/A   Partly Cloudy
3:54 PM 68.0 °F - 44.1 °F 42% 29.96 in 10.0 mi NNW 18.4 mph - N/A   Scattered Clouds
4:54 PM 64.0 °F - 44.1 °F 48% 29.98 in 10.0 mi NNW 19.6 mph 24.2 mph N/A   Overcast
5:54 PM 63.0 °F - 45.0 °F 52% 29.99 in 10.0 mi NNW 12.7 mph - N/A   Mostly Cloudy
6:54 PM 62.1 °F - 45.0 °F 53% 30.00 in 10.0 mi NW 13.8 mph - N/A   Mostly Cloudy
7:54 PM 61.0 °F - 45.0 °F 56% 30.00 in 10.0 mi NNW 10.4 mph - N/A   Mostly Cloudy
8:54 PM 57.9 °F - 46.0 °F 65% 30.01 in 10.0 mi NNW 8.1 mph - N/A   Clear
9:54 PM 57.9 °F - 45.0 °F 62% 30.02 in 10.0 mi North 8.1 mph - N/A   Scattered Clouds
10:54 PM 57.0 °F - 45.0 °F 64% 30.03 in 10.0 mi North 6.9 mph - N/A   Clear
11:54 PM 53.1 °F - 45.0 °F 74% 30.03 in 10.0 mi North 4.6 mph - N/A   Clear